(I47) Pierre Auger Observatory, Malargüe  (S35.495440 W69.449700)  Argentina.
    Observer M. Mašek. 0.3-m f/6.8 reflector + CCD.
(J69) North Observatory, Clanfield  (N50.939017 W1.019656)  UK/England.
   Observer D. Briggs. 0.3-m f/5.4 Newtonian reflector + CCD.
(J95) Great Shefford  (N51.474969 W1.447003)  UK/England.  Observer P.
   Birtwhistle. 0.41-m f/6.3 Schmidt-Cassegrain + CCD.
(M44) Al-Khatim Observatory, Abu Dhabi  (N24.219595 E54.920310)  United Arab
   Emirates.  Observer M. Odeh. 0.36-m f/7.7 SC + CCD.
(U52) Shasta Valley Observatory, Grenada  (N41.579164 W122.548890)
   US/California.  Observer J. E. Rogers. Measurers J. E. Rogers, D. Parrott.
   0.30-m Helin Telescope + CCD.
(U75) Newport Beach  (N33.607625 W117.816340)  US/California.  Observer R.
   Matson. 0.28-m f/7 Schmidt-Cassegrain + CCD.
(Y00) SONEAR Observatory, Oliveira  (S20.715080 W44.784960)  Brazil.
   Observers C. Jacques, E. Pimentel, J. Barros. Measurer C. Jacques. 0.45-m
   f/2.9 astrograph + CCD.
(Z80) Northolt Branch Observatory  (N51.554659 W0.371920)  UK/England.
   Observer G. Wells. Measurers D. Bamberger, G. Wells. 0.25-m f/8
   Ritchey-Chrétien + CCD.

Orbital elements:  Artemis-1 Orion
   Perigee 2022 Dec 11.7242943 +/- 5.25e-5 TT = 17:22:59.03 (JD 2459925.2242943)
Epoch 2022 Dec 11.7 TT = JDT 2459925.2                           Find_Orb
M 359.1797237895 +/- 0.0017         (J2000 equator)
n  33.7640903891 +/- 0.00289        Peri.  345.9857902 +/- 0.00054
a204628.82163 +/- 11.7              Node   222.1119494 +/- 0.000034
e   0.968710803 +/- 9.53e-7         Incl.   85.7622720 +/- 0.00022
P  10.66d                  H 26.64  G  0.15   U  8.8
q 6402.6715008 +/- 0.558    Q 402854.97177 +/- 22.8
113 of 115 observations 2022 Dec. 7-10; mean residual 0".575
IMPACT at 11 Dec 2022 17:20:40.29 lat -21.05309 lon W119.75106
Residuals in arcseconds: 
221207 M44(3.92+ 1.80+)   221208 J69 .439- .214+    221209 J95 .051- .288+    
221207 M44(2.50+ 1.34+)   221208 J69 .249- .502+    221209 J95 .017- .279+    
221207 M44 .631+ .015-    221208 J69 .223- .230+    221209 J95 .099- .262+    
221207 M44 .032+ 1.17-    221208 J69 .186- .142+    221210 I47 .364- 1.04+    
221207 M44 .223- 1.23-    221208 J95 .174+ .248+    221210 I47 .400- 1.05+    
221207 950 .015- .205-    221208 J95 .014- .101+    221210 I47 .383- .977+    
221207 950 .014- .344-    221208 J95 9.0m+ .086+    221210 I47 .601- .831+    
221207 950 .142- .148-    221208 J95 .147+ .130+    221210 I47 .490- .805+    
221207 970 .032+ .122+    221208 Y00 .073- .211-    221210 U75 .291- .221+    
221207 970 .019- .136-    221208 Y00 .169- .124-    221210 U75 .603- .481+    
221207 970 .065- .093-    221208 Y00 .285- .032-    221210 U75 .028- .841+    
221207 970 .070+ 2.0m-    221208 Y00 .030+ .252-    221210 U75 .249- 1.13+    
221207 970 4.1m- .115-    221208 Y00 .167- .133-    221210 U75 .014+ 1.01+    
221207 Z80 .080+ .493+    221208 Y00 .055- .166-    221210 U75 .286- .599+    
221207 Z80 .058+ .286+    221208 Y00 .017+ .257-    221210 U75 .702- .709+    
221207 Z80 .032+ .267+    221208 Y00 .055+ .228-    221210 U75 .078- .805+    
221207 Z80 .075- 2.9m-    221208 Y00 .087- .220-    221210 U75 .160- .798+    
221207 Z80 .160- .065-    221208 Y00 .056- .091-    221210 U75 1.1m- 1.11+    
221207 204 .422+ .106+    221209 970 4.8m- .176+    221210 U75 .556- 1.12+    
221207 204 .270+ .081+    221209 970 .222+ .205+    221210 U75 .650- 1.07+    
221207 204 .178+ .205+    221209 970 .253+ .272+    221210 U75 .368- .495+    
221207 204 .044+ .137-    221209 970 .013- .021-    221210 U75 .481- 1.56+    
221207 204 .020+ .045-    221209 I47 .448- .316-    221210 U75 .111- .801+    
221208 I47 .398- .316-    221209 I47 .659- .426-    221210 U75 .086- .967+    
221208 I47 .304- .529-    221209 I47 .395- .080-    221210 U75 .141- 1.76+    
221208 I47 .342- 1.09-    221209 718 .332- .417-    221210 U75 .867- 1.17+    
221208 U52 .521- .032+    221209 718 .045- .030+    221210 718 1.20- 1.04+    
221208 U52 .461- .036-    221209 718 .377- .308-    221210 718 .811- 1.47+    
221208 U52 .109- .210-    221209 718 .308- .428-    221210 718 .964- 1.48+    
221208 U52 .428- .081-    221209 718 7.1m- .126-    221210 718 .910- 1.46+    
221208 U52 .319- .016+    221209 970 .090+ .330-    221210 718 1.05- 1.39+    
221208 U52 .338- .138+    221209 970 .149+ .292-    221210 718 .799- 1.43+    
221208 U52 .104+ .127-    221209 970 .093- .616-    221210 718 .620- 1.48+    
221208 U52 .119- .159+    221209 970 .185+ .197-    221210 718 .659- 1.64+    
221208 U52 6.9m- .121-    221209 970 8.8m+ .053+    221210 718 .638- 1.58+    
221208 U52 .790- .145+    221209 970 .278- .369-    221210 718 .963- 1.66+    
221208 U52 .290- .048-    221209 970 .761- .800-    221210 718 .908- 1.75+    
221208 U52 .449- .029+    221209 970 .478- .716-    
221208 J69 .220- .179+    221209 J95 .056- .357+    

Ephemerides (geocentric):
Date (UTC) HH   RA             Dec           delta elong  mag  LuElo " sig PA
---- --------  ------------   ------------  ------ -----  ---  ----- --------
2022 12 08 00  02 45 54.516   +10 26 36.47  379585 146.4 15.1   32.3 .050 175
2022 12 08 01  02 45 55.194   +10 20 20.70  378336 146.3 15.1   32.9 .048 174
2022 12 08 02  02 45 55.920   +10 14 02.76  377051 146.2 15.1   33.4 .046 173
2022 12 08 03  02 45 56.691   +10 07 42.56  375732 146.1 15.1   34.0 .044 172
2022 12 08 04  02 45 57.509   +10 01 19.99  374376 146.0 15.1   34.5 .042 171
2022 12 08 05  02 45 58.371   +09 54 54.93  372985 145.9 15.1   35.1 .040 170
2022 12 08 06  02 45 59.278   +09 48 27.28  371557 145.8 15.1   35.6 .039 170
2022 12 08 07  02 46 00.229   +09 41 56.92  370093 145.8 15.0   36.2 .037 169
2022 12 08 08  02 46 01.224   +09 35 23.73  368593 145.7 15.0   36.7 .036 168
2022 12 08 09  02 46 02.262   +09 28 47.58  367055 145.6 15.0   37.3 .035 167
2022 12 08 10  02 46 03.343   +09 22 08.36  365480 145.5 15.0   37.8 .034 166
2022 12 08 11  02 46 04.467   +09 15 25.92  363868 145.4 15.0   38.4 .034 165
2022 12 08 12  02 46 05.634   +09 08 40.14  362217 145.3 15.0   38.9 .033 164
2022 12 08 13  02 46 06.843   +09 01 50.88  360529 145.2 15.0   39.5 .033 164
2022 12 08 14  02 46 08.094   +08 54 57.99  358802 145.1 15.0   40.0 .032 163
2022 12 08 15  02 46 09.388   +08 48 01.32  357035 145.0 15.0   40.6 .032 162
2022 12 08 16  02 46 10.725   +08 41 00.71  355230 145.0 15.0   41.1 .032 162
2022 12 08 17  02 46 12.104   +08 33 56.01  353384 144.9 15.0   41.7 .032 161
2022 12 08 18  02 46 13.525   +08 26 47.05  351499 144.8 15.0   42.3 .032 161
2022 12 08 19  02 46 14.990   +08 19 33.65  349573 144.7 15.0   42.8 .033 161
2022 12 08 20  02 46 16.498   +08 12 15.64  347606 144.6 14.9   43.4 .033 160
2022 12 08 21  02 46 18.050   +08 04 52.81  345597 144.5 14.9   43.9 .034 160
2022 12 08 22  02 46 19.646   +07 57 24.98  343547 144.4 14.9   44.5 .034 160
2022 12 08 23  02 46 21.286   +07 49 51.94  341454 144.3 14.9   45.0 .035 160
2022 12 09 00  02 46 22.971   +07 42 13.47  339319 144.2 14.9   45.6 .036 160
2022 12 09 01  02 46 24.702   +07 34 29.34  337140 144.1 14.9   46.1 .037 160
2022 12 09 02  02 46 26.479   +07 26 39.33  334917 144.0 14.9   46.7 .038 161
2022 12 09 03  02 46 28.304   +07 18 43.18  332649 143.9 14.9   47.2 .039 161
2022 12 09 04  02 46 30.176   +07 10 40.63  330337 143.8 14.9   47.8 .040 161
2022 12 09 05  02 46 32.097   +07 02 31.40  327978 143.7 14.8   48.3 .041 161
2022 12 09 06  02 46 34.068   +06 54 15.22  325574 143.6 14.8   48.9 .043 162
2022 12 09 07  02 46 36.090   +06 45 51.77  323122 143.5 14.8   49.4 .044 162
2022 12 09 08  02 46 38.164   +06 37 20.73  320622 143.4 14.8   50.0 .046 162
2022 12 09 09  02 46 40.292   +06 28 41.77  318074 143.3 14.8   50.6 .047 162
2022 12 09 10  02 46 42.474   +06 19 54.53  315477 143.2 14.8   51.1 .049 163
2022 12 09 11  02 46 44.712   +06 10 58.64  312830 143.1 14.8   51.7 .050 163
2022 12 09 12  02 46 47.008   +06 01 53.68  310131 143.0 14.7   52.2 .052 163
2022 12 09 13  02 46 49.364   +05 52 39.24  307381 142.9 14.7   52.8 .054 164
2022 12 09 14  02 46 51.781   +05 43 14.87  304579 142.8 14.7   53.4 .055 164
2022 12 09 15  02 46 54.262   +05 33 40.09  301723 142.6 14.7   53.9 .057 164
2022 12 09 16  02 46 56.809   +05 23 54.38  298812 142.5 14.7   54.5 .059 165
2022 12 09 17  02 46 59.423   +05 13 57.21  295846 142.4 14.7   55.0 .060 165
2022 12 09 18  02 47 02.108   +05 03 47.99  292823 142.3 14.6   55.6 .062 165
2022 12 09 19  02 47 04.867   +04 53 26.09  289742 142.2 14.6   56.2 .064 165
2022 12 09 20  02 47 07.702   +04 42 50.86  286603 142.1 14.6   56.7 .065 165
2022 12 09 21  02 47 10.617   +04 32 01.58  283403 141.9 14.6   57.3 .066 166
2022 12 09 22  02 47 13.615   +04 20 57.47  280141 141.8 14.5   57.9 .068 166
2022 12 09 23  02 47 16.700   +04 09 37.73  276816 141.7 14.5   58.4 .069 166
2022 12 10 00  02 47 19.876   +03 58 01.44  273427 141.5 14.5   59.0 .069 166
2022 12 10 01  02 47 23.148   +03 46 07.66  269972 141.4 14.5   59.6 .070 166
2022 12 10 02  02 47 26.521   +03 33 55.33  266449 141.3 14.5   60.1 .070 166
2022 12 10 03  02 47 29.999   +03 21 23.33  262856 141.1 14.4   60.7 .070 166
2022 12 10 04  02 47 33.589   +03 08 30.42  259192 141.0 14.4   61.3 .070 166
2022 12 10 05  02 47 37.298   +02 55 15.27  255455 140.8 14.4   61.9 .069 166
2022 12 10 06  02 47 41.131   +02 41 36.40  251642 140.7 14.3   62.5 .068 166
2022 12 10 07  02 47 45.097   +02 27 32.22  247752 140.5 14.3   63.0 .066 165
2022 12 10 08  02 47 49.205   +02 13 00.97  243782 140.4 14.3   63.6 .063 165
2022 12 10 09  02 47 53.464   +01 58 00.70  239729 140.2 14.3   64.2 .060 164
2022 12 10 10  02 47 57.884   +01 42 29.27  235590 140.0 14.2   64.8 .055 163
2022 12 10 11  02 48 02.477   +01 26 24.31  231364 139.8 14.2   65.4 .050 162
2022 12 10 12  02 48 07.256   +01 09 43.18  227046 139.7 14.2   66.0 .043 160
2022 12 10 13  02 48 12.235   +00 52 22.92  222633 139.5 14.1   66.6 .035 156
2022 12 10 14  02 48 17.431   +00 34 20.25  218122 139.3 14.1   67.2 .026 148
